When you browse on this site, cookies collect data to enhance your experience and personalize the content and advertising you see.
Visit our Privacy Policy to learn more. By continuing to use the site, you agree to this use of cookies and data.
  • In Österreich
  • Länderverzeichnis
  • Für 7 Tage
  • Wassertemperatur
  • Satellitenkarten
  • Wetterkarte
  • News
  • Widgets
  • user-avatar
    Anmelden

    Stündliche Wetter Novaya Derevnya

    Heute, 24 April, Mittwoch

    Zeit Temperatur Niederschläge Wind Luftdruck Luftfeuchtigkeit
    00:00 +11°C° 0 mm 1 m/S 751 mmHg 63%
    01:00 +11°C° 0 mm 1 m/S 751 mmHg 64%
    02:00 +9°C° 0 mm 0 m/S 751 mmHg 62%
    03:00 +8°C° 0 mm 0 m/S 751 mmHg 63%
    04:00 +8°C° 0 mm 0 m/S 751 mmHg 63%
    05:00 +8°C° 0 mm 0 m/S 752 mmHg 64%
    06:00 +11°C° 0 mm 0 m/S 752 mmHg 58%
    07:00 +14°C° 0 mm 1 m/S 752 mmHg 52%
    08:00 +16°C° 0 mm 1 m/S 752 mmHg 45%
    09:00 +19°C° 0 mm 1 m/S 752 mmHg 41%
    10:00 +21°C° 0 mm 1 m/S 752 mmHg 37%
    11:00 +22°C° 0 mm 1 m/S 752 mmHg 33%
    12:00 +23°C° 0 mm 1 m/S 752 mmHg 32%
    13:00 +23°C° 0 mm 1 m/S 751 mmHg 30%
    14:00 +23°C° 0 mm 1 m/S 751 mmHg 29%
    15:00 +23°C° 0 mm 1 m/S 751 mmHg 31%
    16:00 +23°C° 0 mm 1 m/S 751 mmHg 33%
    17:00 +22°C° 0 mm 1 m/S 750 mmHg 35%
    18:00 +20°C° 0 mm 1 m/S 750 mmHg 40%
    19:00 +16°C° 0 mm 0 m/S 750 mmHg 44%
    20:00 +14°C° 0 mm 0 m/S 750 mmHg 49%
    21:00 +13°C° 0 mm 0 m/S 750 mmHg 51%
    22:00 +13°C° 0 mm 0 m/S 750 mmHg 53%
    23:00 +12°C° 0 mm 0 m/S 750 mmHg 55%

    Morgen, 25 April, Donnerstag

    Zeit Temperatur Niederschläge Wind Luftdruck Luftfeuchtigkeit
    00:00 +11°C° 0 mm 0 m/S 750 mmHg 57%
    01:00 +11°C° 0 mm 0 m/S 750 mmHg 59%
    02:00 +10°C° 0 mm 0 m/S 750 mmHg 61%
    03:00 +10°C° 0 mm 0 m/S 750 mmHg 62%
    04:00 +10°C° 0 mm 0 m/S 750 mmHg 63%
    05:00 +10°C° 0 mm 0 m/S 750 mmHg 64%
    06:00 +12°C° 0 mm 0 m/S 750 mmHg 58%
    07:00 +14°C° 0 mm 0 m/S 750 mmHg 52%
    08:00 +17°C° 0 mm 0 m/S 750 mmHg 46%
    09:00 +20°C° 0 mm 1 m/S 750 mmHg 42%
    10:00 +22°C° 0 mm 1 m/S 750 mmHg 38%
    11:00 +23°C° 0 mm 1 m/S 750 mmHg 33%
    12:00 +23°C° 0 mm 1 m/S 749 mmHg 35%
    13:00 +21°C° 0 mm 2 m/S 749 mmHg 36%
    14:00 +21°C° 0 mm 2 m/S 749 mmHg 37%
    15:00 +22°C° 0 mm 1 m/S 748 mmHg 39%
    16:00 +21°C° 0 mm 1 m/S 748 mmHg 42%
    17:00 +21°C° 0 mm 1 m/S 748 mmHg 45%
    18:00 +20°C° 0 mm 1 m/S 748 mmHg 47%
    19:00 +17°C° 0 mm 0 m/S 748 mmHg 49%
    20:00 +16°C° 0 mm 0 m/S 748 mmHg 51%
    21:00 +15°C° 0 mm 0 m/S 748 mmHg 51%
    22:00 +16°C° 0 mm 1 m/S 748 mmHg 52%
    23:00 +15°C° 0 mm 1 m/S 748 mmHg 53%

    übermorgen, 26 April, Freitag

    Zeit Temperatur Niederschläge Wind Luftdruck Luftfeuchtigkeit
    00:00 +15°C° 0 mm 1 m/S 748 mmHg 54%
    01:00 +15°C° 0 mm 1 m/S 747 mmHg 55%
    02:00 +14°C° 0 mm 1 m/S 747 mmHg 57%
    03:00 +13°C° 0 mm 0 m/S 747 mmHg 57%
    04:00 +13°C° 0 mm 0 m/S 747 mmHg 58%
    05:00 +12°C° 0 mm 0 m/S 747 mmHg 59%
    06:00 +14°C° 0 mm 0 m/S 747 mmHg 55%
    07:00 +15°C° 0 mm 0 m/S 747 mmHg 52%
    08:00 +17°C° 0 mm 0 m/S 747 mmHg 48%
    09:00 +20°C° 0 mm 1 m/S 747 mmHg 43%
    10:00 +21°C° 0 mm 1 m/S 747 mmHg 38%
    11:00 +21°C° 0 mm 2 m/S 746 mmHg 33%
    12:00 +21°C° 0 mm 2 m/S 746 mmHg 34%
    13:00 +21°C° 0 mm 2 m/S 746 mmHg 35%
    14:00 +21°C° 0 mm 3 m/S 745 mmHg 36%
    15:00 +20°C° 0 mm 2 m/S 745 mmHg 38%
    16:00 +20°C° 0 mm 2 m/S 744 mmHg 40%
    17:00 +20°C° 0 mm 2 m/S 744 mmHg 41%
    18:00 +19°C° 0 mm 2 m/S 744 mmHg 46%
    19:00 +17°C° 0 mm 2 m/S 744 mmHg 50%
    20:00 +16°C° 0 mm 2 m/S 744 mmHg 55%
    21:00 +16°C° 0 mm 2 m/S 743 mmHg 57%
    22:00 +16°C° 0 mm 2 m/S 743 mmHg 59%
    23:00 +15°C° 0 mm 2 m/S 743 mmHg 61%

    27 April, Samstag

    Zeit Temperatur Niederschläge Wind Luftdruck Luftfeuchtigkeit
    00:00 +15°C° 0.1 mm 2 m/S 742 mmHg 63%
    01:00 +14°C° 0.1 mm 2 m/S 742 mmHg 66%
    02:00 +14°C° 0.1 mm 2 m/S 742 mmHg 68%
    03:00 +13°C° 0.1 mm 2 m/S 741 mmHg 71%
    04:00 +12°C° 0.1 mm 2 m/S 741 mmHg 74%
    05:00 +12°C° 0.1 mm 2 m/S 741 mmHg 78%
    06:00 +13°C° 0 mm 2 m/S 740 mmHg 69%
    07:00 +15°C° 0 mm 2 m/S 740 mmHg 60%
    08:00 +17°C° 0 mm 3 m/S 740 mmHg 52%
    09:00 +18°C° 0 mm 3 m/S 739 mmHg 47%
    10:00 +19°C° 0 mm 3 m/S 739 mmHg 41%
    11:00 +21°C° 0 mm 3 m/S 739 mmHg 36%
    12:00 +21°C° 0 mm 3 m/S 738 mmHg 37%
    13:00 +22°C° 0 mm 3 m/S 738 mmHg 38%
    14:00 +22°C° 0 mm 3 m/S 738 mmHg 40%
    15:00 +21°C° 0.8 mm 3 m/S 737 mmHg 48%
    16:00 +20°C° 0.8 mm 2 m/S 737 mmHg 57%
    17:00 +18°C° 0.8 mm 2 m/S 737 mmHg 66%
    18:00 +17°C° 0.6 mm 2 m/S 737 mmHg 72%
    19:00 +16°C° 0.6 mm 2 m/S 737 mmHg 77%
    20:00 +15°C° 0.6 mm 2 m/S 737 mmHg 83%
    21:00 +14°C° 0 mm 1 m/S 737 mmHg 85%
    22:00 +13°C° 0 mm 1 m/S 737 mmHg 88%
    23:00 +13°C° 0 mm 1 m/S 737 mmHg 91%

    28 April, Sonntag

    Zeit Temperatur Niederschläge Wind Luftdruck Luftfeuchtigkeit
    00:00 +12°C° 0.1 mm 1 m/S 737 mmHg 92%
    01:00 +12°C° 0.1 mm 2 m/S 737 mmHg 93%
    02:00 +10°C° 0.1 mm 2 m/S 737 mmHg 95%
    03:00 +10°C° 0 mm 3 m/S 737 mmHg 92%
    04:00 +8°C° 0 mm 4 m/S 738 mmHg 90%
    05:00 +7°C° 0 mm 4 m/S 738 mmHg 87%
    06:00 +7°C° 0 mm 5 m/S 739 mmHg 83%
    07:00 +8°C° 0 mm 5 m/S 739 mmHg 78%
    08:00 +8°C° 0 mm 5 m/S 740 mmHg 74%
    09:00 +9°C° 0 mm 5 m/S 740 mmHg 69%
    10:00 +9°C° 0 mm 5 m/S 741 mmHg 64%
    11:00 +10°C° 0 mm 5 m/S 742 mmHg 59%
    12:00 +10°C° 0 mm 5 m/S 742 mmHg 53%
    13:00 +10°C° 0 mm 5 m/S 742 mmHg 47%
    14:00 +10°C° 0 mm 5 m/S 743 mmHg 42%
    15:00 +10°C° 0 mm 5 m/S 743 mmHg 43%
    16:00 +9°C° 0 mm 5 m/S 743 mmHg 44%
    17:00 +8°C° 0 mm 5 m/S 744 mmHg 44%
    18:00 +7°C° 0 mm 4 m/S 744 mmHg 47%
    19:00 +5°C° 0 mm 4 m/S 745 mmHg 50%
    20:00 +4°C° 0 mm 3 m/S 746 mmHg 53%
    21:00 +3°C° 0 mm 3 m/S 746 mmHg 53%
    22:00 +2°C° 0 mm 3 m/S 747 mmHg 53%
    23:00 +1°C° 0 mm 3 m/S 747 mmHg 53%

    29 April, Montag

    Zeit Temperatur Niederschläge Wind Luftdruck Luftfeuchtigkeit
    00:00 0°C° 0 mm 3 m/S 747 mmHg 56%
    01:00 0°C° 0 mm 3 m/S 748 mmHg 58%
    02:00 -1°C° 0 mm 3 m/S 748 mmHg 61%
    03:00 -1°C° 0 mm 3 m/S 748 mmHg 63%
    04:00 -1°C° 0 mm 3 m/S 749 mmHg 65%
    05:00 -2°C° 0 mm 3 m/S 749 mmHg 67%
    06:00 0°C° 0 mm 3 m/S 749 mmHg 59%
    07:00 +2°C° 0 mm 3 m/S 749 mmHg 51%
    08:00 +4°C° 0 mm 4 m/S 750 mmHg 43%
    09:00 +5°C° 0 mm 4 m/S 750 mmHg 40%
    10:00 +7°C° 0 mm 3 m/S 750 mmHg 37%
    11:00 +8°C° 0 mm 3 m/S 750 mmHg 34%
    12:00 +8°C° 0 mm 3 m/S 749 mmHg 33%
    13:00 +9°C° 0 mm 3 m/S 749 mmHg 32%
    14:00 +9°C° 0 mm 3 m/S 749 mmHg 31%
    15:00 +9°C° 0 mm 3 m/S 749 mmHg 32%
    16:00 +9°C° 0 mm 3 m/S 749 mmHg 33%
    17:00 +9°C° 0 mm 2 m/S 749 mmHg 34%
    18:00 +7°C° 0 mm 2 m/S 749 mmHg 40%
    19:00 +5°C° 0 mm 2 m/S 749 mmHg 46%
    20:00 +5°C° 0 mm 1 m/S 749 mmHg 52%
    21:00 +4°C° 0 mm 1 m/S 750 mmHg 54%
    22:00 +3°C° 0 mm 1 m/S 750 mmHg 57%
    23:00 +3°C° 0 mm 1 m/S 750 mmHg 59%
    Mehr zeigen